EW7427 Weather Reports


Display with metric or nautical units.
time (UTC)temp
F
wind
direction
speed
MPH
gust
MPH
rain 1hr
in
rain 24hr
in
rain mn
in
humidity
%
barometer
mb
20210922113720 68 111 4.0 9.0 0.00 0.00 0.00 88 1019.5
20210922113217 68 154 4.0 9.0 0.00 0.00 0.00 88 1019.5
20210922112716 68 155 5.0 12.0 0.00 0.00 0.00 88 1019.5
20210922112216 68 114 4.0 12.0 0.00 0.00 0.00 88 1019.6
20210922111716 68 197 2.0 8.0 0.00 0.00 0.00 89 1019.5
20210922111219 68 147 4.0 8.0 0.00 0.00 0.00 88 1019.5
20210922110715 68 136 4.0 8.0 0.00 0.00 0.00 88 1019.5
20210922110214 68 132 3.0 7.0 0.00 0.00 0.00 88 1019.5
20210922105715 68 153 1.0 5.0 0.00 0.00 0.00 88 1019.4
20210922105214 68 194 0.0 4.0 0.00 0.00 0.00 88 1019.5
20210922104714 68 170 1.0 5.0 0.00 0.00 0.00 89 1019.5
20210922104214 68 162 2.0 5.0 0.00 0.00 0.00 89 1019.6
20210922103714 68 115 3.0 8.0 0.00 0.00 0.00 89 1019.5
20210922103215 68 141 4.0 8.0 0.00 0.00 0.00 89 1019.5
20210922102710 68 137 4.0 8.0 0.00 0.00 0.00 89 1019.4
20210922102210 67 163 3.0 6.0 0.00 0.00 0.00 89 1019.5
20210922101711 67 106 3.0 6.0 0.00 0.00 0.00 90 1019.5
20210922101210 67 129 3.0 7.0 0.00 0.00 0.00 90 1019.5
20210922100710 67 136 4.0 8.0 0.00 0.00 0.00 90 1019.5
20210922100212 67 143 2.0 8.0 0.00 0.00 0.00 90 1019.5
20210922095710 67 113 0.0 7.0 0.00 0.00 0.00 90 1019.6
20210922095211 67 195 0.0 0.0 0.00 0.00 0.00 89 1019.6
20210922094711 67 196 0.0 4.0 0.00 0.00 0.00 89 1019.7
20210922094210 67 195 1.0 4.0 0.00 0.00 0.00 89 1019.7
20210922093709 67 146 1.0 9.0 0.00 0.00 0.00 89 1019.7
20210922093211 67 106 2.0 9.0 0.00 0.00 0.00 90 1019.8
20210922092712 67 188 2.0 6.0 0.00 0.00 0.00 90 1019.9
20210922092211 67 198 1.0 6.0 0.00 0.00 0.00 90 1019.9
20210922091711 67 141 1.0 6.0 0.00 0.00 0.00 90 1020.0
20210922091210 67 147 1.0 4.0 0.00 0.00 0.00 91 1020.0
20210922090710 67 148 1.0 3.0 0.00 0.00 0.00 91 1020.1
20210922090210 66 111 2.0 4.0 0.00 0.00 0.00 91 1020.1
20210922085708 66 122 1.0 4.0 0.00 0.00 0.00 91 1020.1
20210922085209 66 123 1.0 4.0 0.00 0.00 0.00 91 1020.1
20210922084708 67 106 1.0 4.0 0.00 0.00 0.00 91 1020.2
20210922084209 66 111 0.0 4.0 0.00 0.00 0.00 91 1020.2
20210922083707 67 131 0.0 2.0 0.00 0.00 0.00 90 1020.3
20210922083209 67 170 0.0 2.0 0.00 0.00 0.00 90 1020.4
20210922082708 67 184 0.0 4.0 0.00 0.00 0.00 90 1020.5
20210922082209 67 184 1.0 4.0 0.00 0.00 0.00 90 1020.6
20210922081707 67 159 0.0 3.0 0.00 0.00 0.00 91 1020.5
20210922081209 67 112 0.0 1.0 0.00 0.00 0.00 91 1020.6
20210922080707 67 113 1.0 7.0 0.00 0.00 0.00 91 1020.6
20210922080209 67 120 1.0 7.0 0.00 0.00 0.00 92 1020.7
20210922075713 66 117 0.0 6.0 0.00 0.00 0.00 92 1020.8
20210922075221 66 115 0.0 1.0 0.00 0.00 0.00 91 1020.9
20210922074707 66 115 0.0 1.0 0.00 0.00 0.00 91 1020.9
20210922074212 66 115 0.0 1.0 0.00 0.00 0.00 91 1020.9
20210922073705 67 115 0.0 1.0 0.00 0.00 0.00 91 1021.0
20210922073205 67 115 0.0 2.0 0.00 0.00 0.00 91 1021.0
20210922072705 66 115 0.0 2.0 0.00 0.00 0.00 91 1021.1
20210922072205 66 115 0.0 1.0 0.00 0.00 0.00 91 1021.1
20210922071704 67 115 0.0 0.0 0.00 0.00 0.00 91 1021.1
20210922071203 67 115 0.0 2.0 0.00 0.00 0.00 90 1021.2
20210922070659 67 116 0.0 2.0 0.00 0.00 0.00 91 1021.3
20210922070156 66 141 0.0 0.0 0.00 0.00 0.00 91 1021.4
20210922065655 66 141 0.0 0.0 0.00 0.00 0.00 90 1021.4
20210922065158 66 141 0.0 0.0 0.00 0.00 0.00 90 1021.5
20210922064651 67 141 0.0 0.0 0.00 0.00 0.00 90 1021.6
20210922064144 66 141 0.0 0.0 0.00 0.00 0.00 90 1021.6
20210922063639 66 142 0.0 0.0 0.00 0.00 0.00 90 1021.7
20210922063132 66 142 0.0 0.0 0.00 0.00 0.00 90 1021.8
20210922062627 66 155 0.0 0.0 0.00 0.00 0.00 90 1021.8
20210922062121 66 162 0.0 0.0 0.00 0.00 0.00 89 1021.9
20210922061614 66 162 0.0 0.0 0.00 0.00 0.00 89 1021.9
20210922061108 66 164 0.0 0.0 0.00 0.00 0.00 89 1022.1
20210922060602 66 164 0.0 0.0 0.00 0.00 0.00 89 1022.2
20210922060056 66 164 0.0 2.0 0.00 0.00 0.00 89 1022.2
20210922055550 66 164 1.0 6.0 0.00 0.00 0.00 88 1022.3
20210922055044 66 164 0.0 6.0 0.00 0.00 0.00 88 1022.3
20210922054538 66 164 0.0 2.0 0.00 0.00 0.00 88 1022.4
20210922054032 66 164 0.0 2.0 0.00 0.00 0.00 88 1022.5
20210922053526 66 164 0.0 1.0 0.00 0.00 0.00 88 1022.6
20210922053020 66 164 0.0 0.0 0.00 0.00 0.00 88 1022.6
20210922052514 66 164 1.0 3.0 0.00 0.00 0.00 88 1022.6
20210922052009 66 164 1.0 3.0 0.00 0.00 0.00 88 1022.7
20210922051502 66 164 0.0 2.0 0.00 0.00 0.00 88 1022.7
20210922050955 66 164 0.0 0.0 0.00 0.00 0.00 88 1022.9
20210922050451 66 164 0.0 0.0 0.00 0.00 0.00 87 1022.8
20210922045943 66 165 1.0 4.0 0.00 0.00 0.00 87 1022.9
20210922045438 66 165 1.0 5.0 0.00 0.00 0.00 87 1022.9
20210922044932 66 109 0.0 5.0 0.00 0.00 0.00 87 1023.0
20210922044426 66 64 1.0 4.0 0.00 0.00 0.00 87 1023.0
20210922043919 66 64 1.0 4.0 0.00 0.00 0.00 87 1023.1
20210922043415 66 65 0.0 3.0 0.00 0.00 0.00 87 1023.2
20210922042908 66 65 1.0 8.0 0.00 0.00 0.00 87 1023.1
20210922042401 66 111 2.0 8.0 0.00 0.00 0.00 87 1023.1
20210922041856 66 134 2.0 8.0 0.00 0.00 0.00 87 1023.2
20210922041350 66 149 3.0 8.0 0.00 0.00 0.00 87 1023.2
20210922040850 66 233 2.0 8.0 0.00 0.00 0.00 87 1023.3
20210922040351 66 10 1.0 4.0 0.00 0.00 0.00 87 1023.3
20210922035847 66 347 2.0 9.0 0.00 0.00 0.00 87 1023.3
20210922035349 66 330 3.0 13.0 0.00 0.00 0.00 88 1023.2
20210922034849 66 91 4.0 14.0 0.00 0.00 0.00 88 1023.1
20210922034349 66 219 4.0 14.0 0.00 0.00 0.00 88 1023.1
20210922033850 66 48 5.0 16.0 0.00 0.00 0.00 88 1023.1
20210922033348 66 120 7.0 16.0 0.00 0.00 0.00 88 1023.1
20210922032849 66 94 8.0 17.0 0.00 0.00 0.00 88 1023.2
20210922032349 66 118 8.0 17.0 0.00 0.00 0.00 87 1023.1
20210922031846 66 120 7.0 15.0 0.00 0.00 0.00 87 1023.2
20210922031345 66 124 7.0 14.0 0.00 0.00 0.00 87 1023.1
20210922030846 66 105 7.0 17.0 0.00 0.00 0.00 87 1023.1
20210922030346 66 135 7.0 18.0 0.00 0.00 0.00 87 1023.2
20210922025847 66 145 7.0 18.0 0.00 0.00 0.00 87 1023.2
20210922025348 66 134 7.0 15.0 0.00 0.00 0.00 87 1023.3
20210922024846 66 96 8.0 15.0 0.00 0.00 0.00 86 1023.2
20210922024344 66 82 7.0 15.0 0.00 0.00 0.00 86 1023.3
20210922023843 66 115 8.0 18.0 0.00 0.00 0.00 86 1023.2
20210922023342 66 129 9.0 23.0 0.00 0.00 0.00 86 1023.3
20210922022841 66 129 9.0 23.0 0.00 0.00 0.00 86 1023.3
20210922022341 66 167 8.0 20.0 0.00 0.00 0.00 86 1023.3
20210922021843 66 86 8.0 20.0 0.00 0.00 0.00 86 1023.3
20210922021335 66 132 8.0 18.0 0.00 0.00 0.00 86 1023.4
20210922020830 66 143 10.0 19.0 0.00 0.00 0.00 86 1023.3
20210922020331 66 105 10.0 19.0 0.00 0.00 0.00 86 1023.3
20210922015831 66 121 9.0 18.0 0.00 0.00 0.00 86 1023.4
20210922015331 66 123 10.0 19.0 0.00 0.00 0.00 85 1023.5
20210922014831 67 131 11.0 19.0 0.00 0.00 0.00 85 1023.5
20210922014329 67 122 10.0 21.0 0.00 0.00 0.00 85 1023.6
20210922013830 67 110 9.0 21.0 0.00 0.00 0.00 85 1023.6
20210922013328 67 145 10.0 21.0 0.00 0.00 0.00 85 1023.7
20210922012827 67 119 9.0 21.0 0.00 0.00 0.00 85 1023.6
20210922012328 67 169 7.0 14.0 0.00 0.00 0.00 85 1023.8
20210922011829 67 103 6.0 14.0 0.00 0.00 0.00 85 1023.9
20210922011329 67 128 6.0 15.0 0.00 0.00 0.00 84 1024.0
20210922010827 67 111 6.0 15.0 0.00 0.00 0.00 84 1024.0
20210922010326 67 123 6.0 17.0 0.00 0.00 0.00 84 1024.1
20210922005826 67 120 5.0 17.0 0.00 0.00 0.00 84 1024.0
20210922005326 67 55 4.0 12.0 0.00 0.00 0.00 84 1024.0
20210922004826 67 51 4.0 12.0 0.00 0.00 0.00 84 1024.1
20210922004325 67 47 4.0 11.0 0.00 0.00 0.00 84 1024.1
20210922003821 67 100 4.0 12.0 0.00 0.00 0.00 84 1024.1
20210922003314 67 74 4.0 12.0 0.00 0.00 0.00 84 1024.1
20210922002807 67 120 4.0 11.0 0.00 0.00 0.00 84 1024.0
20210922002305 67 116 3.0 11.0 0.00 0.00 0.00 84 1024.2
20210922001757 67 108 3.0 11.0 0.00 0.00 0.00 84 1024.1
20210922001251 67 354 3.0 11.0 0.00 0.00 0.00 84 1024.1
20210922000744 67 77 3.0 10.0 0.00 0.00 0.00 84 1024.1
20210922000240 67 188 2.0 8.0 0.00 0.00 0.00 84 1024.0
20210921235733 67 128 3.0 11.0 0.00 0.00 0.00 84 1023.9
20210921235226 67 95 3.0 13.0 0.00 0.00 0.00 84 1024.0
20210921234214 67 127 3.0 10.0 0.00 0.00 0.00 83 1023.9
20210921233709 67 90 3.0 10.0 0.00 0.00 0.00 83 1024.0
20210921233203 67 39 3.0 9.0 0.00 0.00 0.00 83 1024.0
20210921232656 68 216 4.0 11.0 0.00 0.00 0.00 83 1023.9
20210921232151 68 129 5.0 17.0 0.00 0.00 0.00 83 1023.8
20210921231644 68 171 5.0 17.0 0.00 0.00 0.00 83 1023.8
20210921231138 68 131 4.0 16.0 0.00 0.00 0.00 83 1023.8
20210921230634 68 117 3.0 12.0 0.00 0.00 0.00 83 1023.8
20210921230126 68 114 3.0 12.0 0.00 0.00 0.00 82 1023.9
20210921225621 68 153 4.0 12.0 0.00 0.00 0.00 82 1024.0
20210921225117 68 129 5.0 15.0 0.00 0.00 0.00 82 1024.0
20210921224617 68 121 6.0 15.0 0.00 0.00 0.00 81 1023.9
20210921224117 69 124 6.0 15.0 0.00 0.00 0.00 81 1024.0
20210921223616 69 104 5.0 15.0 0.00 0.00 0.00 81 1023.9
20210921223118 69 134 6.0 13.0 0.00 0.00 0.00 80 1023.9
20210921222615 69 49 6.0 14.0 0.00 0.00 0.00 80 1023.9
20210921222114 69 195 6.0 14.0 0.00 0.00 0.00 79 1023.9
20210921221613 69 124 6.0 14.0 0.00 0.00 0.00 79 1023.8
20210921221112 69 124 6.0 12.0 0.00 0.00 0.00 79 1024.0
20210921220612 70 136 5.0 12.0 0.00 0.00 0.00 78 1024.0
20210921220112 70 59 5.0 12.0 0.00 0.00 0.00 78 1024.1
20210921215612 70 129 5.0 12.0 0.00 0.00 0.00 77 1024.0
20210921215110 70 125 4.0 12.0 0.00 0.00 0.00 77 1024.2
20210921214611 70 115 5.0 12.0 0.00 0.00 0.00 77 1024.2
20210921214111 70 114 6.0 12.0 0.00 0.00 0.00 77 1024.2
20210921213612 70 106 5.0 13.0 0.00 0.00 0.00 76 1024.1
20210921213111 70 176 4.0 13.0 0.00 0.00 0.00 76 1024.1
20210921212612 71 134 4.0 10.0 0.00 0.00 0.00 76 1024.2
20210921212113 71 103 4.0 10.0 0.00 0.00 0.00 75 1024.3
20210921211610 71 111 4.0 12.0 0.00 0.00 0.00 75 1024.3
20210921211111 71 115 4.0 12.0 0.00 0.00 0.00 75 1024.4
20210921210610 71 129 3.0 9.0 0.00 0.00 0.00 76 1024.4
20210921210111 71 113 4.0 9.0 0.00 0.00 0.00 76 1024.4
20210921205611 70 134 4.0 9.0 0.00 0.00 0.00 76 1024.4
20210921205110 70 158 5.0 12.0 0.00 0.00 0.00 76 1024.4
20210921204608 70 122 5.0 12.0 0.00 0.00 0.00 76 1024.3
20210921204110 71 150 5.0 11.0 0.00 0.00 0.00 76 1024.4
20210921203607 71 131 5.0 11.0 0.00 0.00 0.00 76 1024.4
20210921203108 71 153 6.0 11.0 0.00 0.00 0.00 75 1024.4
20210921202605 71 116 5.0 14.0 0.00 0.00 0.00 75 1024.4
20210921202105 71 90 4.0 14.0 0.00 0.00 0.00 75 1024.5
20210921201606 71 139 5.0 10.0 0.00 0.00 0.00 75 1024.5
20210921201104 70 118 5.0 11.0 0.00 0.00 0.00 75 1024.7
20210921200605 71 124 5.0 11.0 0.00 0.00 0.00 74 1024.8
20210921200106 71 117 5.0 11.0 0.00 0.00 0.00 75 1024.8
20210921195606 71 105 5.0 9.0 0.00 0.00 0.00 75 1024.8
20210921195105 70 118 5.0 9.0 0.00 0.00 0.00 75 1024.7
20210921194605 70 159 4.0 9.0 0.00 0.00 0.00 76 1024.8
20210921194105 70 128 4.0 10.0 0.00 0.00 0.00 76 1024.8
20210921193605 70 124 4.0 10.0 0.00 0.00 0.00 75 1024.9
20210921193105 70 200 4.0 9.0 0.00 0.00 0.00 76 1025.0
20210921192609 70 131 5.0 9.0 0.00 0.00 0.00 75 1025.0
20210921192101 70 142 5.0 9.0 0.00 0.00 0.00 76 1025.1
20210921191601 70 119 6.0 11.0 0.00 0.00 0.00 74 1025.1
20210921191102 70 114 7.0 14.0 0.00 0.00 0.00 75 1025.2
20210921190604 70 84 7.0 14.0 0.00 0.00 0.00 75 1025.2
20210921190101 70 144 7.0 13.0 0.00 0.00 0.00 75 1025.2
20210921185601 70 98 7.0 17.0 0.00 0.00 0.00 74 1025.4
20210921185101 70 108 9.0 17.0 0.00 0.00 0.00 73 1025.4
20210921184602 70 127 8.0 16.0 0.00 0.00 0.00 73 1025.5
20210921184104 70 143 6.0 16.0 0.00 0.00 0.00 73 1025.5
20210921183602 70 104 6.0 12.0 0.00 0.00 0.00 73 1025.6
20210921183059 70 127 7.0 13.0 0.00 0.00 0.00 73 1025.6
20210921182600 70 115 7.0 15.0 0.00 0.00 0.00 73 1025.7
20210921182059 70 122 7.0 15.0 0.00 0.00 0.00 73 1025.7
20210921181559 70 105 7.0 14.0 0.00 0.00 0.00 72 1025.7
20210921181059 70 124 7.0 12.0 0.00 0.00 0.00 72 1025.8
20210921180600 70 84 7.0 12.0 0.00 0.00 0.00 72 1025.9
20210921180100 70 105 6.0 11.0 0.00 0.00 0.00 72 1025.9
20210921175559 71 132 6.0 14.0 0.00 0.00 0.00 72 1026.0
20210921175102 71 130 6.0 14.0 0.00 0.00 0.00 71 1026.0
20210921174557 71 117 7.0 16.0 0.00 0.00 0.00 71 1026.0
20210921174056 71 141 6.0 16.0 0.00 0.00 0.00 69 1025.9
20210921173555 71 141 7.0 14.0 0.00 0.00 0.00 71 1026.0
20210921173054 71 151 9.0 15.0 0.00 0.00 0.00 71 1026.0
20210921172551 71 122 9.0 16.0 0.00 0.00 0.00 72 1026.0
20210921172050 71 111 8.0 16.0 0.00 0.00 0.00 70 1026.0
20210921171550 71 132 8.0 17.0 0.00 0.00 0.00 70 1026.1
20210921171048 71 114 7.0 17.0 0.00 0.00 0.00 70 1026.0
20210921170548 71 40 7.0 12.0 0.00 0.00 0.00 72 1026.1
20210921170048 71 86 7.0 12.0 0.00 0.00 0.00 70 1026.2
20210921165547 71 144 8.0 16.0 0.00 0.00 0.00 71 1026.2
20210921165046 71 107 8.0 16.0 0.00 0.00 0.00 70 1026.1
20210921164545 71 101 9.0 16.0 0.00 0.00 0.00 70 1026.2
20210921164045 71 128 10.0 16.0 0.00 0.00 0.00 70 1026.3
20210921163545 70 101 10.0 15.0 0.00 0.00 0.00 71 1026.3
20210921163045 70 131 9.0 15.0 0.00 0.00 0.00 70 1026.3
20210921162545 70 131 9.0 15.0 0.00 0.00 0.00 70 1026.3
20210921162040 71 97 9.0 15.0 0.00 0.00 0.00 69 1026.4
20210921161533 71 131 9.0 16.0 0.00 0.00 0.00 69 1026.5
20210921161027 71 115 10.0 17.0 0.00 0.00 0.00 67 1026.5
20210921160521 71 160 11.0 23.0 0.00 0.00 0.00 68 1026.5
20210921160015 71 128 9.0 23.0 0.00 0.00 0.00 66 1026.5
20210921155509 72 104 7.0 15.0 0.00 0.00 0.00 67 1026.6
20210921155003 71 136 8.0 17.0 0.00 0.00 0.00 69 1026.6
20210921154458 71 156 7.0 17.0 0.00 0.00 0.00 69 1026.6
20210921153951 71 122 6.0 11.0 0.00 0.00 0.00 68 1026.7
20210921153445 72 115 7.0 14.0 0.00 0.00 0.00 68 1026.7
20210921152940 71 118 7.0 21.0 0.00 0.00 0.00 68 1026.7
20210921152434 71 210 7.0 21.0 0.00 0.00 0.00 70 1026.7
20210921151927 70 159 8.0 14.0 0.00 0.00 0.00 71 1026.7
20210921151420 70 155 8.0 17.0 0.00 0.00 0.00 72 1026.7
20210921150914 70 146 8.0 17.0 0.00 0.00 0.00 73 1026.7
20210921150407 69 107 6.0 14.0 0.00 0.00 0.00 74 1026.7
20210921145901 68 130 5.0 12.0 0.00 0.00 0.00 75 1026.7
20210921145355 69 136 4.0 12.0 0.00 0.00 0.00 75 1026.9
20210921144849 69 104 5.0 12.0 0.00 0.00 0.00 74 1026.8
20210921144343 69 110 6.0 13.0 0.00 0.00 0.00 74 1026.8
20210921143837 69 130 6.0 15.0 0.00 0.00 0.00 74 1026.8
20210921143332 68 160 6.0 15.0 0.00 0.00 0.00 76 1026.9
20210921142825 68 104 5.0 14.0 0.00 0.00 0.00 75 1026.9
20210921142318 68 181 4.0 15.0 0.00 0.00 0.00 77 1027.0
20210921141813 67 124 5.0 15.0 0.00 0.00 0.00 78 1027.1
20210921141306 67 154 5.0 12.0 0.00 0.00 0.00 78 1027.1
20210921140801 66 160 6.0 12.0 0.00 0.00 0.00 79 1027.1
20210921140255 66 124 5.0 13.0 0.00 0.00 0.00 80 1027.1
20210921135749 65 131 6.0 13.0 0.00 0.00 0.00 81 1027.0
20210921135243 65 117 6.0 12.0 0.00 0.00 0.00 82 1027.0
20210921134737 64 108 6.0 15.0 0.00 0.00 0.00 83 1027.1
20210921134232 63 142 6.0 15.0 0.00 0.00 0.00 84 1027.1
20210921133725 63 111 5.0 13.0 0.00 0.00 0.00 84 1027.2
20210921133219 62 141 6.0 12.0 0.00 0.00 0.00 85 1027.2
20210921132713 62 136 5.0 11.0 0.00 0.00 0.00 85 1027.2
20210921132207 62 139 4.0 11.0 0.00 0.00 0.00 85 1027.2
20210921131701 62 129 2.0 7.0 0.00 0.00 0.00 86 1027.3
20210921131156 62 129 3.0 9.0 0.00 0.00 0.00 88 1027.4
20210921130649 61 155 3.0 9.0 0.00 0.00 0.00 88 1027.3
20210921130144 61 158 2.0 7.0 0.00 0.00 0.00 89 1027.3
20210921125637 60 127 1.0 6.0 0.00 0.00 0.00 89 1027.3
20210921125132 60 174 1.0 5.0 0.00 0.00 0.00 89 1027.4
20210921124625 60 188 1.0 6.0 0.00 0.00 0.00 89 1027.5
20210921124119 60 128 1.0 7.0 0.00 0.00 0.00 89 1027.5
20210921123613 60 254 1.0 7.0 0.00 0.00 0.00 89 1027.5
20210921123107 60 126 1.0 6.0 0.00 0.00 0.00 90 1027.5
20210921122600 59 165 2.0 6.0 0.00 0.00 0.00 90 1027.5
20210921122055 59 104 2.0 6.0 0.00 0.00 0.00 90 1027.5
20210921121556 59 111 1.0 5.0 0.00 0.00 0.00 91 1027.5
20210921121055 58 124 1.0 5.0 0.00 0.00 0.00 91 1027.6
20210921120555 58 96 1.0 3.0 0.00 0.00 0.00 91 1027.6
20210921120053 57 66 1.0 3.0 0.00 0.00 0.00 92 1027.6
20210921115552 57 67 0.0 2.0 0.00 0.00 0.00 92 1027.7
20210921115050 57 67 0.0 0.0 0.00 0.00 0.00 92 1027.8
20210921114555 57 67 0.0 0.0 0.00 0.00 0.00 91 1027.8
20210921114050 57 67 0.0 0.0 0.00 0.00 0.00 90 1027.8